Location: Hartford
(41.7640°N, 72.6860°W)
Time: 03:30:46
(UTC-04:00)

Amateur Radio Satellites - All Passes

Search period start: 01 September 2014 03:00
Search period end: 02 September 2014 03:00
Location: Hartford, 41.7640°N, 72.6860°W

Satellite Date Start Highest point End Downlink Frequencies (MHz)
Time Altitude Azimuth
PCSat 01 Sep 03:08:11 03:12:42 27° 252° (WSW) 03:17:11 145.825 MHz
KITSAT 1 01 Sep 03:09:09 03:13:04 14° 342° (NNW) 03:16:59 435.175 FM
Oscar 19 01 Sep 03:10:06 03:15:03 46° 290° (WNW) 03:19:58 437.125 CW, 437.150 USB
Gurwin Techsat 1B 01 Sep 03:10:33 03:15:28 38° 97° (E) 03:20:22 435.225 FM
JAS-1B 01 Sep 03:12:10 03:18:53 70° 102° (ESE) 03:24:42 435.800 - 435.900 CW/SSB
OPAL 01 Sep 03:13:48 03:17:32 21° 61° (ENE) 03:21:19 ?
AO-Echo 01 Sep 03:27:21 03:31:58 59° 287° (WNW) 03:36:36 ?
ITAMSAT 1 01 Sep 03:45:20 03:50:19 49° 289° (WNW) 03:55:18 435.822 SSB
Oscar 16 01 Sep 03:45:59 03:49:56 22° 296° (WNW) 03:53:52 437.025 USB, Beacon 2401.1428
Uribyol 2 01 Sep 03:55:07 03:59:54 38° 292° (WNW) 04:04:40 436.500 FM
TMSAT-1 01 Sep 04:01:00 04:06:19 81° 103° (ESE) 04:11:37 436.925 FM
Oscar 10/S400 01 Sep 04:15:12 05:24:42 27° 245° (WSW) 08:30:39 145.825 - 145.975 CW/USB, Beacon 145.810 USB
AO-27 01 Sep 04:15:16 04:19:34 27° 295° (WNW) 04:23:51 436.795 MHz FM
Uosat F 01 Sep 04:19:29 04:23:22 22° 94° (E) 04:27:14 435.120 FM
SO-50 01 Sep 04:38:09 04:42:11 32° 313° (NW) 04:46:19 436.795 FM
AO-7 01 Sep 04:39:21 04:47:07 42° 99° (E) 04:54:48 29.400 - 29.500 MHz
UOSAT-12 01 Sep 04:49:44 04:53:52 34° 115° (ESE) 04:58:05 437.025 FM, 437.400 FM
Gurwin Techsat 1B 01 Sep 04:50:48 04:55:17 29° 294° (WNW) 04:59:45 435.225 FM
OPAL 01 Sep 04:51:06 04:56:01 52° 258° (WSW) 05:01:03 ?
JAS-1B 01 Sep 05:04:05 05:08:39 20° 305° (NW) 05:12:50 435.800 - 435.900 CW/SSB
KITSAT 1 01 Sep 05:09:23 05:12:49 13° 14° (NNE) 05:16:14 435.175 FM
Saudisat 1A 01 Sep 05:21:47 05:22:55 11° 34° (NE) 05:24:03 436.775 MHz
JAS-2 01 Sep 05:39:20 05:42:29 16° 92° (E) 05:45:44 435.800 - 435.900 CW/SSB, 435.910 FM
TMSAT-1 01 Sep 05:42:48 05:45:33 14° 301° (WNW) 05:48:17 436.925 FM
RS-15 01 Sep 05:53:58 06:01:04 20° 100° (E) 06:08:02 29.354 - 29.394 USB, Beacon 29.352 USB
Uosat F 01 Sep 05:57:36 06:02:19 43° 290° (WNW) 06:07:01 435.120 FM
Hamsat 01 Sep 06:08:10 06:11:55 28° 95° (E) 06:15:37 145.90 MHz
UOSAT-12 01 Sep 06:29:52 06:34:01 31° 313° (NW) 06:38:14 437.025 FM, 437.400 FM
AO-7 01 Sep 06:32:10 06:39:54 46° 298° (WNW) 06:47:37 29.400 - 29.500 MHz
STRAND 1 01 Sep 06:37:05 06:42:09 71° 74° (ENE) 06:47:14 ?
Saudisat 1A 01 Sep 06:59:02 07:03:25 61° 54° (NE) 07:07:46 436.775 MHz
KITSAT 1 01 Sep 07:04:12 07:11:19 32° 42° (NE) 07:18:22 435.175 FM
JAS-2 01 Sep 07:22:47 07:27:59 64° 287° (WNW) 07:33:36 435.800 - 435.900 CW/SSB, 435.910 FM
SO-67 01 Sep 07:35:17 07:38:29 34° 97° (E) 07:41:40 435.3500 MHz FM
Hamsat 01 Sep 07:44:09 07:47:47 26° 292° (WNW) 07:51:23 145.90 MHz
RS-15 01 Sep 08:00:35 08:11:41 84° 120° (ESE) 08:22:38 29.354 - 29.394 USB, Beacon 29.352 USB
STRAND 1 01 Sep 08:19:20 08:21:51 14° 270° (W) 08:24:21 ?
AO-7 01 Sep 08:29:14 08:30:35 11° 320° (NW) 08:31:56 29.400 - 29.500 MHz
HO-68 01 Sep 08:33:03 08:37:30 17° 90° (E) 08:41:56 435.675 MHz FM
Saudisat 1A 01 Sep 08:40:05 08:42:30 15° 251° (WSW) 08:44:54 436.775 MHz
KITSAT 1 01 Sep 08:59:19 09:07:21 70° 244° (WSW) 09:15:19 435.175 FM
ISS 01 Sep 09:02:16 09:03:58 13° 130° (SE) 09:05:40 145.800 FM
SO-67 01 Sep 09:09:25 09:11:13 14° 293° (WNW) 09:13:01 435.3500 MHz FM
UKube-1 01 Sep 09:37:36 09:41:09 24° 95° (E) 09:44:42 145.840 MHz, 145.915 MHz
Oscar 11 01 Sep 09:42:22 09:45:28 19° 93° (E) 09:48:32 145.825 FM, Beacon 2401.500 USB
FUNcube-1 01 Sep 10:12:33 10:15:30 17° 92° (E) 10:18:27 145.950 - 145.970 MHz USB
RS-15 01 Sep 10:15:40 10:25:22 34° 326° (NW) 10:35:05 29.354 - 29.394 USB, Beacon 29.352 USB
HO-68 01 Sep 10:18:49 10:26:00 85° 288° (WNW) 10:33:10 435.675 MHz FM
ISS 01 Sep 10:36:59 10:40:18 73° 326° (NW) 10:43:38 145.800 FM
KITSAT 1 01 Sep 10:58:25 11:01:14 12° 262° (W) 11:04:03 435.175 FM
UKube-1 01 Sep 11:13:33 11:17:21 30° 292° (WNW) 11:21:08 145.840 MHz, 145.915 MHz
Oscar 11 01 Sep 11:17:43 11:21:48 39° 289° (WNW) 11:25:51 145.825 FM, Beacon 2401.500 USB
SO-50 01 Sep 11:28:34 11:32:56 34° 48° (NE) 11:37:20 436.795 FM
MaSat-1 01 Sep 11:41:06 11:43:07 12° 99° (E) 11:45:11 437.345 MHz
FUNcube-1 01 Sep 11:47:44 11:52:07 48° 287° (WNW) 11:56:32 145.950 - 145.970 MHz USB
PANSAT 01 Sep 11:59:11 11:59:43 10° 173° (S) 12:00:16 not established
HO-68 01 Sep 12:08:17 12:12:42 18° 307° (NW) 12:17:07 435.675 MHz FM
JAS-1B 01 Sep 12:08:30 12:13:49 17° 53° (NE) 12:18:47 435.800 - 435.900 CW/SSB
ISS 01 Sep 12:14:58 12:17:29 19° 345° (NNW) 12:19:59 145.800 FM
RS-15 01 Sep 12:34:37 12:42:22 21° 1° (N) 12:50:13 29.354 - 29.394 USB, Beacon 29.352 USB
Oscar 19 01 Sep 12:48:30 12:53:05 33° 67° (ENE) 12:57:42 437.125 CW, 437.150 USB
AO-Echo 01 Sep 13:03:11 13:06:54 22° 65° (ENE) 13:10:34 ?
SO-50 01 Sep 13:09:11 13:13:28 32° 245° (WSW) 13:17:45 436.795 FM
MaSat-1 01 Sep 13:14:25 13:19:20 83° 296° (WNW) 13:24:32 437.345 MHz
UOSAT-12 01 Sep 13:18:48 13:23:08 34° 48° (NE) 13:27:24 437.025 FM, 437.400 FM
Oscar 16 01 Sep 13:23:02 13:28:09 72° 74° (ENE) 13:33:20 437.025 USB, Beacon 2401.1428
ITAMSAT 1 01 Sep 13:24:53 13:29:26 32° 67° (ENE) 13:34:00 435.822 SSB
Uribyol 2 01 Sep 13:34:05 13:38:53 41° 69° (ENE) 13:43:43 436.500 FM
PANSAT 01 Sep 13:38:10 13:39:05 11° 186° (S) 13:39:59 not established
TMSAT-1 01 Sep 13:44:39 13:48:02 18° 61° (ENE) 13:51:26 436.925 FM
AO-7 01 Sep 13:51:36 13:55:22 14° 44° (NE) 13:59:08 29.400 - 29.500 MHz
ISS 01 Sep 13:53:03 13:55:09 16° 6° (N) 13:57:15 145.800 FM
JAS-1B 01 Sep 13:53:24 14:03:01 68° 71° (ENE) 14:11:34 435.800 - 435.900 CW/SSB
AO-27 01 Sep 13:53:46 13:58:51 61° 72° (ENE) 14:03:57 436.795 MHz FM
Oscar 19 01 Sep 14:27:52 14:32:24 31° 264° (W) 14:36:58 437.125 CW, 437.150 USB
Gurwin Techsat 1B 01 Sep 14:31:50 14:37:02 61° 72° (ENE) 14:42:16 435.225 FM
AO-Echo 01 Sep 14:40:36 14:45:24 45° 261° (W) 14:50:05 ?
Oscar 10/S400 01 Sep 14:48:29 14:56:54 13° 147° (SSE) 15:04:23 145.825 - 145.975 CW/USB, Beacon 145.810 USB
RS-15 01 Sep 14:49:22 14:59:17 36° 35° (NE) 15:09:26 29.354 - 29.394 USB, Beacon 29.352 USB
MaSat-1 01 Sep 14:54:25 14:57:11 15° 315° (NW) 14:59:59 437.345 MHz
UOSAT-12 01 Sep 14:59:05 15:03:14 31° 246° (WSW) 15:07:18 437.025 FM, 437.400 FM
ITAMSAT 1 01 Sep 15:04:20 15:08:54 31° 264° (W) 15:13:28 435.822 SSB
Oscar 16 01 Sep 15:05:28 15:08:02 14° 270° (W) 15:10:37 437.025 USB, Beacon 2401.1428
Uribyol 2 01 Sep 15:14:22 15:18:30 24° 266° (W) 15:22:39 436.500 FM
TMSAT-1 01 Sep 15:22:10 15:27:25 65° 258° (WSW) 15:32:41 436.925 FM
ISS 01 Sep 15:29:33 15:32:38 33° 26° (NNE) 15:35:42 145.800 FM
Uosat F 01 Sep 15:32:55 15:37:20 32° 67° (ENE) 15:41:46 435.120 FM
AO-27 01 Sep 15:35:33 15:38:46 16° 269° (W) 15:41:59 436.795 MHz FM
AO-7 01 Sep 15:38:20 15:46:26 58° 65° (ENE) 15:54:32 29.400 - 29.500 MHz
Sapphire 01 Sep 15:38:43 15:42:28 19° 106° (ESE) 15:46:14 437.095 MHz 1200 baud AX-25 AFSK
JAS-1B 01 Sep 15:45:31 15:53:48 32° 266° (W) 16:01:28 435.800 - 435.900 CW/SSB
PCSat 01 Sep 16:06:33 16:11:28 37° 111° (ESE) 16:16:25 145.825 MHz
Gurwin Techsat 1B 01 Sep 16:14:01 16:17:25 17° 269° (W) 16:20:49 435.225 FM
OPAL 01 Sep 17:00:39 17:05:35 40° 100° (E) 17:10:26 ?
RS-15 01 Sep 17:01:45 17:12:51 81° 241° (WSW) 17:24:25 29.354 - 29.394 USB, Beacon 29.352 USB
Hamsat 01 Sep 17:02:09 17:05:27 22° 67° (ENE) 17:08:47 145.90 MHz
ISS 01 Sep 17:06:18 17:09:22 34° 223° (SW) 17:12:25 145.800 FM
Uosat F 01 Sep 17:11:45 17:16:06 30° 264° (W) 17:20:28 435.120 FM
Sapphire 01 Sep 17:20:04 17:25:23 60° 303° (WNW) 17:30:46 437.095 MHz 1200 baud AX-25 AFSK
AO-7 01 Sep 17:32:20 17:39:33 32° 264° (W) 17:46:49 29.400 - 29.500 MHz
JAS-2 01 Sep 17:35:07 17:40:59 54° 72° (ENE) 17:46:17 435.800 - 435.900 CW/SSB, 435.910 FM
PCSat 01 Sep 17:50:00 17:54:53 34° 309° (NW) 17:59:49 145.825 MHz
SO-67 01 Sep 18:10:01 18:11:45 13° 66° (ENE) 18:13:30 435.3500 MHz FM
Hamsat 01 Sep 18:37:15 18:41:12 34° 263° (W) 18:45:12 145.90 MHz
OPAL 01 Sep 18:39:54 18:44:15 27° 297° (WNW) 18:48:33 ?
STRAND 1 01 Sep 18:48:08 18:52:09 23° 94° (E) 18:56:10 ?
HO-68 01 Sep 19:03:49 19:07:38 16° 52° (NE) 19:11:28 435.675 MHz FM
Sapphire 01 Sep 19:07:48 19:09:59 12° 324° (NW) 19:12:11 437.095 MHz 1200 baud AX-25 AFSK
RS-15 01 Sep 19:16:31 19:23:28 19° 261° (W) 19:30:37 29.354 - 29.394 USB, Beacon 29.352 USB
JAS-2 01 Sep 19:21:54 19:26:19 21° 266° (W) 19:30:27 435.800 - 435.900 CW/SSB, 435.910 FM
SO-67 01 Sep 19:41:16 19:44:29 35° 262° (W) 19:47:42 435.3500 MHz FM
STRAND 1 01 Sep 20:26:42 20:31:30 43° 290° (WNW) 20:36:17 ?
UKube-1 01 Sep 20:33:41 20:37:06 23° 66° (ENE) 20:40:31 145.840 MHz, 145.915 MHz
Oscar 11 01 Sep 20:38:22 20:41:04 16° 64° (ENE) 20:43:47 145.825 FM, Beacon 2401.500 USB
HO-68 01 Sep 20:47:04 20:54:10 75° 71° (ENE) 21:01:19 435.675 MHz FM
Saudisat 1A 01 Sep 21:07:47 21:10:09 14° 109° (ESE) 21:12:32 436.775 MHz
FUNcube-1 01 Sep 21:10:32 21:12:38 14° 63° (ENE) 21:14:45 145.950 - 145.970 MHz USB
MaSat-1 01 Sep 21:32:29 21:36:19 25° 51° (NE) 21:39:44 437.345 MHz
KITSAT 1 01 Sep 21:36:23 21:40:55 16° 100° (E) 21:45:27 435.175 FM
UKube-1 01 Sep 22:09:14 22:13:08 32° 263° (W) 22:17:03 145.840 MHz, 145.915 MHz
Oscar 11 01 Sep 22:12:40 22:16:52 48° 261° (W) 22:21:06 145.825 FM, Beacon 2401.500 USB
HO-68 01 Sep 22:37:31 22:42:31 20° 269° (W) 22:47:34 435.675 MHz FM
FUNcube-1 01 Sep 22:44:25 22:48:31 56° 260° (W) 22:52:45 145.950 - 145.970 MHz USB
Saudisat 1A 01 Sep 22:44:52 22:49:14 61° 306° (NW) 22:53:37 436.775 MHz
MaSat-1 01 Sep 23:09:24 23:13:22 32° 254° (WSW) 23:16:50 437.345 MHz
KITSAT 1 01 Sep 23:27:00 23:35:05 83° 119° (ESE) 23:43:13 435.175 FM
Sapphire 02 Sep 00:25:11 00:29:12 21° 44° (NE) 00:33:11 437.095 MHz 1200 baud AX-25 AFSK
Saudisat 1A 02 Sep 00:28:32 00:29:43 11° 326° (NW) 00:30:55 436.775 MHz
PCSat 02 Sep 00:53:55 00:58:51 34° 51° (NE) 01:03:44 145.825 MHz
Oscar 19 02 Sep 01:02:21 01:03:35 11° 88° (E) 01:04:49 437.125 CW, 437.150 USB
KITSAT 1 02 Sep 01:24:40 01:31:25 28° 321° (NW) 01:38:12 435.175 FM
Oscar 16 02 Sep 01:35:07 01:39:22 25° 94° (E) 01:43:34 437.025 USB, Beacon 2401.1428
ITAMSAT 1 02 Sep 01:40:17 01:41:08 10° 88° (E) 01:42:00 435.822 SSB
JAS-1B 02 Sep 01:43:28 01:46:02 13° 84° (E) 01:48:30 435.800 - 435.900 CW/SSB
Uribyol 2 02 Sep 01:47:58 01:50:42 14° 90° (E) 01:53:24 436.500 FM
AO-27 02 Sep 02:07:20 02:11:14 21° 93° (E) 02:15:06 436.795 MHz FM
Sapphire 02 Sep 02:07:45 02:13:10 72° 243° (WSW) 02:18:33 437.095 MHz 1200 baud AX-25 AFSK
PCSat 02 Sep 02:37:19 02:42:17 37° 249° (WSW) 02:47:13 145.825 MHz
Oscar 19 02 Sep 02:38:22 02:43:36 88° 284° (WNW) 02:48:47 437.125 CW, 437.150 USB
OPAL 02 Sep 02:41:57 02:42:51 10° 54° (NE) 02:43:45 ?
AO-Echo 02 Sep 02:47:15 02:51:52 55° 100° (E) 02:56:30 ?
Gurwin Techsat 1B 02 Sep 02:48:26 02:52:40 24° 94° (E) 02:56:52 435.225 FM
